MST,Max TemperatureF,Mean TemperatureF,Min TemperatureF,Max Dew PointF,MeanDew PointF,Min DewpointF,Max Humidity, Mean Humidity, Min Humidity, Max Sea Level PressureIn, Mean Sea Level PressureIn, Min Sea Level PressureIn, Max VisibilityMiles, Mean VisibilityMiles, Min VisibilityMiles, Max Wind SpeedMPH, Mean Wind SpeedMPH, Max Gust SpeedMPH,PrecipitationIn, CloudCover, Events, WindDirDegrees
2012-12-1,77,57,37,34,23,6,73,38,7,30.17,30.06,29.96,10,10,10,8,3,,0.00,0,,121
2012-12-2,75,56,37,23,19,12,53,28,9,30.09,30.03,29.96,10,10,10,12,4,,0.00,0,,209
2012-12-3,73,56,39,32,27,22,58,38,18,30.22,30.07,29.99,10,10,10,8,4,,0.00,0,,45
2012-12-4,75,57,39,35,31,29,73,44,20,30.22,30.13,30.06,10,10,10,7,3,,0.00,0,,73
2012-12-5,81,62,44,30,24,14,55,31,8,30.12,30.01,29.92,10,10,10,7,2,,0.00,0,,133
2012-12-6,77,58,39,26,21,11,53,29,9,29.94,29.87,29.79,10,10,10,16,4,21,0.00,0,,186
2012-12-7,57,46,41,28,25,23,53,44,33,30.00,29.92,29.82,10,10,10,6,3,,0.00,0,,79
2012-12-8,,,,,,,,,,30.03,29.99,29.93,,,,,,,0.00,,,-1
2012-12-9,,,,,,,,,,30.12,30.04,30.00,,,,,,,0.00,,,-1
2012-12-10,62,48,34,17,13,10,40,25,15,30.11,30.06,29.97,10,10,10,9,4,,0.00,0,,325
2012-12-11,64,45,26,12,8,4,51,29,9,30.06,29.99,29.92,10,10,10,8,4,,0.00,0,,83
2012-12-12,66,48,30,24,16,7,40,29,16,30.05,29.97,29.91,10,10,10,13,3,20,0.00,0,,163
2012-12-13,61,52,44,49,37,20,92,61,31,29.94,29.82,29.64,10,9,2,23,10,36,0.29,5,Rain,172
2012-12-14,50,43,36,45,36,32,93,80,58,30.02,29.90,29.65,10,8,2,22,14,33,0.63,7,Rain,198
2012-12-15,52,48,43,42,38,33,90,75,57,30.08,30.00,29.90,10,10,4,16,10,22,0.04,8,Rain,178
2012-12-16,54,45,34,42,36,28,89,74,38,30.12,30.05,29.95,10,10,9,9,5,20,0.05,4,Rain,204
2012-12-17,60,45,30,35,30,24,88,68,25,30.17,30.06,29.95,10,10,10,8,3,,0.00,0,,75
2012-12-18,68,50,33,38,32,28,85,56,22,29.96,29.83,29.73,10,10,10,15,4,28,0.00,0,,199
2012-12-19,51,42,28,45,32,12,89,72,24,30.25,29.95,29.72,10,10,7,20,10,28,0.07,5,Rain,252
2012-12-20,64,44,24,24,14,-3,81,41,7,30.29,30.19,30.10,10,10,10,13,4,21,0.00,0,,57
2012-12-21,69,50,32,28,18,10,52,32,14,30.11,30.06,29.98,10,10,10,15,5,20,0.00,0,,68
2012-12-22,66,54,42,36,30,24,65,43,24,30.10,30.04,29.99,10,10,10,14,5,18,0.00,1,,127
2012-12-23,66,51,36,34,26,-19,79,50,6,30.17,30.04,29.96,10,10,10,7,4,,0.00,0,,83
2012-12-24,61,48,36,35,31,23,76,57,30,30.01,29.94,29.86,10,10,10,15,3,23,0.00,0,,245
2012-12-25,57,46,35,37,25,10,86,54,15,30.04,29.97,29.92,10,10,10,7,3,,0.00,0,,140
2012-12-26,63,48,33,29,17,3,67,39,9,29.93,29.86,29.78,10,10,10,14,4,18,0.00,0,,154
2012-12-27,53,40,28,29,21,14,79,51,27,29.99,29.87,29.79,10,10,10,20,5,25,0.00,2,,319
2012-12-28,54,38,23,26,19,11,85,55,18,30.11,30.05,29.99,10,10,10,10,4,,0.00,0,,69
2012-12-29,63,45,27,19,13,-20,63,37,4,30.09,29.99,29.90,10,10,10,12,4,20,0.00,0,,108
2012-12-30,55,45,35,34,27,13,93,64,19,29.97,29.88,29.75,10,10,4,22,8,31,0.07,5,Rain-Snow,164
2012-12-31,44,36,28,35,31,25,97,87,56,30.18,30.04,29.92,10,7,1,10,5,,0.25,7,Rain-Snow,174